sat.trackr.live / text

‹ back to catalog

COSMOS 2569 (703K)

NORAD 57517 · 2023-114A

PAYLOAD INACTIVE UNKNOWN

§ Identity

Operator
Country
CIS
Launch date
2023-08-07
Launch site
PLMSC
Launch vehicle
Mass (kg)
RCS (m²)

Purposes: earth_obs, nav

External: N2YO · Heavens-Above · Gunter

§ Orbital elements

Epoch: 2026-05-23T20:26:51.834048Z

Period
675.73 min
Inclination
65.2892°
Eccentricity
0.0011626
Mean motion
2.13103740 rev/d
Perigee alt
19,100.1 km
Apogee alt
19,159.4 km
Semi-major
25,507.9 km
B*
0.0000e+0
RAAN
73.4407°
Arg perigee
296.5431°
Mean anomaly
63.3318°
Rev number
2,174

§ Raw data

COSMOS 2569 (703K)1 57517U 23114A   26143.85198882 -.00000027  00000+0  00000+0 0  99992 57517  65.2892  73.4407 0011626 296.5431  63.3318  2.13103740 21749

JSON: /api/v1/satellites/57517 · /tle

For live sub-satellite position, see the globe view (requires WebGL).

§ Visibility from observer

Set your observer location to see the next 7 days of passes ≥ 10°. The values pass through the URL so the page stays shareable.

No JS? Fill the form by hand. The geolocation button needs JavaScript.